Starlink 33763

operational
NORAD ID: 63452 Int'l Des: 2025-069 Owner: SPXS Country: US Constellation: starlink
LEOCIRCULAR

Über Starlink 33763

Beschreibung wird geladen...

Live-Position

3D-Globus wird geladen...

Nächste Überflüge

Höhenverlauf

Altitude vs Time

uPlot chart will show altitude changes over time

Zweizeiliger Elementsatz

1 63452U 25069V 25304.60261110 .00031018 00000-0 10556-2 0 9995
2 63452 53.1612 21.8636 0001273 81.9608 278.1538 15.30182131 33646
Epoch: 31. Okt. 2025 • Age: 9 hours

Aktueller Status

Höhe 491.3 km
Geschwindigkeit 7.62 km/s
Subsatellitenpunkt -45.21°S, 142.04°W
Startdatum 4. Apr. 2025
Alter 0.5 years
Typ internet

Technische Details

Klassifizierung Payload
Masse 575.00 kg
Trockenmasse 530.00 kg
Gesamtmasse 575.00 kg
Länge 0.30 m
Durchmesser 4.10 m
Spannweite 29.00 m
Form Box + pan
Hersteller SPXS
Bus-Typ Starlink V2MO
Phasenstatus In Orbit
Besitzer/Staat SPXS/US

Große Konstellationen

Loading constellations...